{"data":{"norad_id":53997,"intl_designator":"2022-125AK","name":"STARLINK-5130","alt_names":[],"object_type":"PAYLOAD","status":"ACTIVE","operator":null,"country":"US","launch_date":"2022-10-05","launch_site_code":"AFWTR","launch_vehicle":null,"mission":null,"orbit_class":"UNKNOWN","rcs_meters":null,"size_class":null,"mass_kg":null,"dimensions":null,"purposes":["comms"],"wikipedia_slug":null,"has_3d_model":false,"image_url":null,"decayed_at":null,"tle_current":{"epoch":"2026-09-20T14:32:15.169632Z","epoch_age_seconds":77405,"freshness":"FRESH","line1":"1 53997U 22125AK  26263.60573113  .00000492  00000+0  25687-4 0  9996","line2":"2 53997  53.1611  35.4691 0001127  83.3397 276.7734 15.34389788219200","mean_motion":15.34389788,"eccentricity":0.0001127,"inclination_deg":53.1611,"raan_deg":35.4691,"arg_perigee_deg":83.3397,"mean_anomaly_deg":276.7734,"bstar":2.5687e-5,"rev_number":21920,"period_min":93.848382677062,"perigee_km":461.96262647574,"apogee_km":463.50455870731,"semimajor_km":6840.8705925915,"source":"CELESTRAK","updated_at":"2026-09-21T09:00:33.071521Z"}}}